Temp
22 23 22 21 18 15 17 20 22 23 25 23 23 23 20 20 21 20 19 20 19 17 20 22 19 18 18 19 19 19 19 19 19 19 18 18 18 18 17 17 17 17 17 16 16 16 15 15 15
23 23 21 17 17 17 17 20 22 23 25 21 23 22 21 20 19 18 17 19 18 17 19 21 21 18 17 19 19 18 18 18 18 18 17 18 18 18 17 17 17 17 16 16 16 16 16 16 16
23 22 18 17 14 16 18 22 22 24 24 24 21 20 20 18 19 18 19 19 18 19 19 19 21 19 18 18 18 18 18 18 17 17 17 18 18 18 17 17 17 17 16 16 16 17 17 17 17
22 19 17 18 18 19 21 22 24 22 22 22 22 18 18 17 18 17 18 18 17 18 18 19 19 17 17 17 18 17 18 17 17 17 17 17 17 17 18 18 17 17 16 16 18 17 18 18 17
21 16 17 18 19 20 23 24 21 20 21 20 20 19 18 17 17 18 18 19 19 20 18 18 18 18 17 17 16 16 18 17 17 17 17 17 17 17 17 17 17 17 18 18 18 18 17 17 17
18 16 17 17 20 22 25 21 21 21 21 20 20 18 17 17 16 16 17 19 18 19 18 19 18 17 17 17 16 16 17 17 17 17 17 17 17 17 17 17 18 18 18 18 18 18 17 16 16
19 17 17 18 21 22 25 21 21 21 21 20 18 19 17 16 15 16 17 19 16 17 19 17 17 16 16 15 16 14 16 17 17 17 17 17 17 17 17 18 18 18 18 18 18 18 18 17 17
18 18 19 19 21 21 24 22 21 21 19 19 20 19 18 15 15 16 17 18 17 19 18 16 16 16 16 15 16 14 16 17 17 17 17 17 16 17 17 17 18 18 18 18 18 18 18 17 17
21 18 17 19 23 23 24 21 20 19 19 19 18 17 15 15 15 15 16 16 16 16 17 16 16 15 15 14 14 15 17 16 17 17 16 16 16 17 17 18 18 18 18 18 18 18 18 17 16
20 17 20 22 24 23 20 21 20 19 19 18 17 16 15 15 15 15 15 15 15 15 15 16 15 14 14 14 13 16 17 17 17 17 16 16 16 17 17 17 17 17 17 17 17 17 17 17 16
21 20 23 23 24 24 18 17 18 18 16 17 16 16 15 14 14 14 13 13 14 15 15 14 14 14 13 13 15 16 17 16 17 17 17 17 16 17 17 17 17 17 17 17 17 16 16 16 16
23 23 23 24 25 23 19 17 17 18 19 18 16 16 15 15 14 13 12 12 13 14 13 13 13 14 14 14 15 16 16 16 16 17 17 17 17 17 17 18 17 17 17 17 16 16 16 16 16
22 23 24 24 24 21 20 19 19 18 17 18 16 17 16 14 13 12 12 12 12 13 13 13 13 13 14 15 15 15 16 16 17 17 17 18 18 17 18 17 17 17 17 16 16 16 16 16 16
23 22 22 23 24 21 20 18 19 17 17 17 17 16 15 14 13 12 12 11 12 12 12 12 12 13 13 14 14 15 16 16 16 17 17 18 19 19 18 17 17 17 17 17 16 16 16 16 16
23 22 22 23 24 21 19 20 20 18 17 17 16 14 14 14 13 12 12 11 12 11 12 12 12 12 13 14 14 15 14 16 17 17 17 18 19 18 18 17 17 17 17 17 16 16 16 16 15
22 21 21 22 24 23 22 21 19 17 18 17 16 14 14 13 13 13 12 11 11 11 11 11 11 12 13 13 14 14 15 16 16 16 17 17 17 18 17 17 17 17 17 17 16 16 16 16 15
20 19 21 22 24 23 21 21 19 17 19 18 16 15 13 12 12 12 12 11 11 11 11 11 11 12 12 13 13 14 15 15 16 16 16 17 17 17 17 17 17 17 16 17 16 16 16 16 15
19 20 21 21 21 21 21 21 18 17 18 19 16 15 14 13 12 11 12 11 11 11 11 11 11 12 12 12 13 13 15 16 16 17 17 16 17 17 17 17 17 17 17 16 16 16 16 16 16
21 20 20 21 23 23 21 21 19 17 18 17 16 16 15 14 13 12 11 11 11 11 11 11 11 10 11 12 12 12 13 15 16 17 17 16 16 17 17 17 17 17 17 16 17 16 16 16 16
21 20 21 22 24 24 20 21 20 17 18 18 17 18 16 14 13 12 11 10 10 11 11 10 11 11 11 11 12 12 13 14 15 15 15 16 16 17 17 17 17 17 16 16 16 16 16 16 15
21 21 21 22 24 24 19 20 20 20 19 19 20 19 18 15 13 13 12 11 11 11 10 11 11 12 12 13 13 13 13 14 14 15 16 17 17 17 17 17 17 16 16 16 16 16 16 16 15
20 23 23 23 22 20 22 19 19 19 19 19 20 19 18 16 15 14 13 12 12 11 11 11 11 11 12 13 12 13 13 14 15 15 17 17 17 17 17 17 17 16 16 16 16 16 16 15 15
22 23 23 24 22 21 22 19 19 20 20 20 19 20 19 17 16 15 14 14 13 12 12 11 11 11 12 12 12 13 14 14 15 15 16 16 17 17 17 17 17 17 16 16 16 15 15 15 15
24 24 24 21 20 19 21 20 19 18 21 22 21 20 20 17 17 16 15 15 14 13 13 13 12 12 12 12 13 13 13 14 14 15 15 15 16 17 17 17 17 17 17 16 16 15 15 15 15
23 20 18 18 18 18 22 20 20 22 21 22 22 20 21 19 18 17 16 15 15 14 14 13 13 13 13 13 13 13 14 14 14 15 15 15 16 16 17 18 17 17 16 16 16 15 14 14 14
21 20 17 19 17 18 20 20 22 23 22 23 23 22 22 21 19 18 17 16 16 15 14 14 14 14 14 14 13 14 14 14 14 15 15 16 17 17 18 18 17 17 15 16 15 14 14 13 13
22 20 21 19 19 17 18 20 22 23 23 23 22 23 22 21 20 18 18 17 17 16 15 15 15 15 15 14 14 14 14 14 15 15 16 16 17 17 17 18 17 17 15 14 13 13 13 13 12
23 22 20 18 18 18 19 20 20 22 22 23 23 21 22 22 21 20 19 18 18 17 17 15 16 16 16 15 15 15 15 15 15 15 16 17 17 17 16 16 17 17 16 13 13 12 12 12 11
21 21 21 20 17 17 17 18 19 21 22 23 23 22 20 20 21 21 20 20 19 18 18 17 16 16 16 16 16 16 16 15 15 15 16 15 15 15 17 16 15 14 13 12 12 12 11 11 10
23 22 21 18 19 17 15 17 22 22 22 25 24 22 21 21 21 21 21 20 20 19 19 18 18 17 17 17 16 16 16 16 16 17 14 15 13 14 15 14 14 13 13 12 11 11 10 9 8
Height
787 787 787 789 818 827 828 808 783 782 774 759 757 763 772 773 779 797 773 773 775 776 776 771 780 793 800 801 800 803 804 803 799 803 807 811 815 820 824 826 831 835 838 841 842 845 846 847 848
785 786 788 800 827 836 825 793 787 776 759 764 762 767 772 781 772 780 779 778 777 778 777 778 778 791 804 801 803 807 808 805 805 806 812 812 817 821 827 830 833 837 840 843 846 847 849 849 850
785 785 797 814 832 831 819 789 783 768 764 763 772 772 778 785 780 779 779 779 779 778 778 777 780 780 787 801 806 808 807 807 809 810 813 816 818 822 826 832 835 839 842 845 848 850 852 852 852
784 787 799 816 819 806 796 785 774 770 764 764 765 784 780 782 779 779 777 777 778 777 774 773 779 787 794 795 801 808 810 811 811 813 816 820 822 825 829 832 836 843 845 847 849 853 854 853 855
784 795 818 821 812 795 780 774 780 775 773 775 768 780 784 777 776 775 776 777 777 776 778 778 785 787 790 798 807 809 810 813 815 816 821 822 827 829 832 836 838 843 847 850 853 855 855 855 857
793 801 825 828 807 786 773 777 771 771 770 771 771 774 777 773 775 774 774 775 776 777 780 776 785 777 787 798 802 811 812 811 816 822 824 826 831 834 835 839 842 846 850 851 854 858 859 859 859
795 809 819 813 801 788 772 770 771 771 773 776 776 780 779 776 775 774 772 771 773 772 777 778 786 793 797 801 799 811 819 814 818 822 826 830 834 837 840 842 845 849 852 854 856 860 863 863 862
789 802 807 806 798 794 770 771 771 772 776 775 769 779 781 778 777 774 768 768 767 775 777 783 787 793 797 802 802 811 818 816 819 822 827 833 837 839 843 845 848 852 854 855 859 863 865 865 865
779 809 816 802 788 779 765 775 772 774 776 775 776 780 785 778 776 774 773 773 774 776 779 784 788 792 797 800 806 812 819 820 822 825 829 834 838 842 845 847 850 855 857 858 859 863 867 868 869
788 811 798 776 770 775 775 772 775 779 778 781 781 782 785 782 778 776 779 777 778 779 778 782 787 791 797 797 803 810 811 816 822 825 830 835 840 844 846 849 853 857 859 861 862 865 868 871 871
783 795 775 767 766 762 776 779 773 777 783 773 773 781 784 785 782 780 779 782 781 780 782 781 786 792 798 800 805 806 806 815 821 824 829 837 839 846 846 849 854 858 862 862 864 867 870 873 873
781 771 768 759 755 760 772 773 776 774 767 765 763 774 781 782 784 783 786 785 785 783 782 783 787 792 795 800 802 807 809 814 821 825 828 833 840 844 845 848 855 860 863 864 866 868 871 874 875
777 769 760 755 754 759 765 770 770 771 768 766 771 775 780 785 786 788 788 787 787 786 787 788 791 793 797 800 804 809 811 815 820 825 828 833 839 843 844 850 855 860 863 864 866 869 871 874 875
765 766 761 752 749 757 765 769 767 772 769 770 772 776 778 781 784 785 786 788 789 789 790 791 792 795 799 802 806 810 814 819 823 826 830 832 838 840 847 852 856 860 862 864 867 869 871 873 874
764 772 760 752 748 758 759 770 768 767 770 770 774 778 779 780 784 786 787 789 790 790 790 792 793 798 800 804 806 810 815 821 821 828 831 834 838 842 847 852 856 858 862 864 866 868 870 872 873
773 772 781 754 749 750 757 774 765 766 767 770 772 779 779 780 782 783 787 789 791 792 792 793 794 798 802 805 809 813 817 819 823 829 832 836 841 843 847 851 854 857 861 862 864 866 868 869 872
781 792 781 768 743 749 758 765 761 764 764 766 770 777 781 781 784 784 786 789 791 793 794 795 798 800 805 809 813 816 818 821 824 828 832 836 840 842 847 850 853 856 858 859 862 864 865 867 869
791 785 776 777 758 751 758 760 762 761 763 762 768 774 780 781 783 781 784 789 793 793 795 797 799 802 807 812 815 819 821 824 826 829 832 835 840 843 846 848 851 853 855 857 859 861 863 865 867
772 779 780 765 748 750 756 754 760 761 762 764 767 769 776 779 782 781 783 788 793 794 796 799 802 805 807 810 814 818 819 822 827 829 832 836 840 842 844 846 848 851 851 854 856 858 860 862 864
771 775 771 759 743 747 758 754 750 760 757 756 759 762 768 775 782 783 784 786 791 793 795 798 801 803 807 811 814 818 821 823 826 829 832 835 837 838 840 842 846 848 849 851 853 854 856 859 861
764 771 766 761 746 743 762 765 754 750 749 750 751 752 757 763 771 777 782 784 788 790 792 793 797 800 803 808 812 816 820 823 825 826 826 827 829 833 836 839 841 843 845 846 849 850 851 854 856
770 748 747 751 758 774 749 782 761 751 750 749 748 748 753 757 764 767 774 779 781 784 789 792 795 796 800 804 809 811 814 816 816 819 820 822 825 827 830 832 834 837 838 840 843 845 846 849 851
753 739 743 742 752 757 755 772 759 748 750 744 743 743 745 749 754 760 764 768 773 779 782 787 793 796 799 803 806 809 811 813 815 816 817 819 821 821 824 827 828 830 833 833 837 839 840 842 846
732 736 738 751 759 776 756 764 762 760 740 727 730 735 737 742 746 752 754 763 769 775 780 784 788 791 796 798 801 803 805 807 809 809 810 811 813 815 818 821 823 825 827 828 829 833 834 837 840
733 752 780 783 784 780 744 755 746 726 723 715 714 723 725 732 740 746 753 758 762 767 773 778 782 784 786 789 792 795 797 800 801 802 804 807 808 809 810 813 816 817 820 822 824 827 829 833 835
737 745 778 780 791 776 749 754 736 710 706 701 699 705 712 721 729 736 739 744 749 755 760 767 771 775 779 782 785 789 793 794 792 796 800 801 802 802 805 807 808 811 813 816 819 820 825 827 829
731 745 732 756 758 775 760 740 718 707 704 701 704 704 710 714 721 724 729 734 740 747 751 752 757 762 768 770 775 778 782 783 786 791 794 796 797 799 801 802 803 806 810 810 812 815 819 822 823
714 716 746 755 769 773 757 748 746 722 710 702 704 707 705 706 710 714 718 723 730 735 739 745 747 750 749 754 760 763 768 774 781 786 789 789 792 795 797 798 799 800 801 804 808 812 815 817 820
721 726 723 731 751 765 769 757 722 715 706 701 697 696 700 702 702 705 709 715 720 726 732 734 738 741 744 750 753 763 768 773 778 780 782 786 786 789 790 792 794 793 797 800 805 807 811 813 816
703 711 718 744 748 748 761 748 705 703 699 691 693 693 692 691 694 697 701 706 714 720 724 726 729 733 733 747 756 764 771 771 771 773 774 774 763 783 785 786 789 791 794 797 801 804 807 810 813
Wind_Speed
3 3 4 4 4 4 4 7 5 11 6 2 4 0 7 1 6 2 5 17 25 21 29 31 20 12 16 27 30 30 31 35 37 38 38 37 36 36 37 36 35 33 31 29 29 28 26 24 24
1 3 3 3 4 1 5 5 7 11 10 7 8 6 5 4 5 3 10 20 23 23 31 29 30 20 15 24 27 29 32 35 36 37 37 38 38 38 36 35 34 33 31 29 27 26 26 27 25
3 1 3 4 3 5 4 4 7 8 14 2 4 7 2 2 2 4 7 20 27 22 19 29 20 33 42 28 29 29 32 35 36 36 38 38 39 39 38 35 34 32 29 27 26 27 25 24 29
2 4 4 2 7 7 5 11 6 6 8 13 4 5 2 2 2 6 2 9 20 19 19 24 25 38 34 32 31 26 33 35 36 35 37 38 38 38 37 36 34 30 27 26 28 25 24 23 25
1 3 3 2 7 7 5 1 5 10 5 2 1 3 3 4 2 3 16 17 17 16 17 28 24 31 32 29 23 22 34 35 35 35 36 36 36 37 36 34 33 31 29 27 26 25 26 24 27
3 3 3 4 6 6 3 6 4 4 2 3 2 7 4 3 5 2 16 12 8 14 19 22 24 32 37 26 29 16 32 36 34 34 34 35 34 34 34 32 31 30 27 26 25 24 28 28 24
5 4 5 5 12 7 3 2 3 3 3 4 0 4 2 4 7 3 15 12 3 14 21 25 22 19 26 36 36 22 26 33 34 33 33 33 33 32 31 30 29 27 26 25 24 23 25 26 21
5 4 3 6 2 8 3 3 4 6 2 1 2 1 2 1 2 2 17 14 20 13 19 25 30 33 34 31 35 33 23 29 33 33 33 32 31 30 30 29 27 26 25 25 23 22 21 25 24
3 2 5 7 2 7 4 4 3 2 5 5 4 5 2 4 7 6 8 12 22 22 22 32 36 36 35 37 35 29 29 28 29 32 34 32 30 29 29 28 26 24 23 24 24 21 18 21 22
4 3 7 10 4 4 4 4 5 5 6 3 2 5 3 4 2 4 2 4 11 19 30 38 39 43 42 38 38 37 32 31 31 33 33 32 31 29 29 27 24 22 22 23 24 20 16 15 14
4 5 12 20 10 7 7 2 5 13 2 6 4 5 5 3 2 5 6 2 7 14 24 37 41 45 38 35 36 35 36 35 33 36 34 32 32 30 29 27 24 22 18 20 19 13 10 14 12
3 9 12 15 6 6 7 8 5 4 6 3 8 7 6 3 2 3 2 3 5 16 21 30 36 34 34 36 35 35 37 37 35 35 36 34 34 32 28 25 23 20 18 17 14 12 13 10 10
6 8 9 9 3 5 9 3 5 3 7 9 7 9 9 6 5 1 1 4 7 12 21 29 31 34 35 37 34 33 36 36 36 37 37 36 33 31 24 23 21 20 17 15 12 12 11 9 11
4 7 10 8 7 10 7 4 2 4 6 9 11 11 7 7 8 6 4 7 10 12 22 27 32 33 34 36 38 33 32 28 36 34 31 33 32 28 24 22 21 20 17 14 11 12 11 9 8
5 7 11 9 4 5 10 1 2 7 11 13 9 10 10 8 10 10 9 10 14 16 21 27 30 30 35 34 35 34 29 32 33 31 30 29 28 27 25 22 21 19 17 15 13 14 12 10 10
5 5 3 7 4 4 4 6 5 9 12 11 11 10 9 11 13 12 10 11 12 19 22 25 28 34 36 37 37 32 30 32 30 28 25 27 22 23 23 20 20 19 19 18 16 20 16 12 13
2 5 5 10 8 7 7 4 8 11 10 9 12 11 10 9 6 14 13 14 13 20 23 23 29 32 35 36 29 28 35 28 28 26 23 24 21 19 18 21 19 20 22 22 22 22 19 17 16
5 4 4 9 8 5 3 4 5 13 9 12 14 13 11 12 12 17 15 13 15 19 21 29 35 36 34 32 32 29 30 30 21 29 27 20 24 19 19 20 17 21 20 24 25 24 21 19 17
4 6 10 13 5 4 6 3 10 7 8 9 11 16 15 13 13 20 21 22 20 23 24 27 28 27 30 32 27 22 24 28 27 30 36 18 24 22 21 20 21 20 21 24 25 24 22 20 17
8 11 15 8 7 4 6 11 6 8 7 10 12 15 16 12 14 18 22 25 26 27 28 29 31 32 31 29 31 27 28 30 31 30 29 25 23 23 25 24 25 25 23 24 27 27 25 23 21
13 11 15 9 4 4 5 6 5 5 6 5 12 16 16 19 19 16 22 27 29 28 31 33 34 39 40 38 36 29 28 29 32 34 33 29 23 27 29 28 30 28 27 27 30 30 29 28 24
11 10 6 7 4 5 5 4 5 6 8 6 10 17 17 18 16 17 22 27 32 33 32 35 35 38 40 41 34 32 29 27 31 29 33 32 30 31 32 34 34 33 32 33 33 33 33 32 27
12 14 6 5 3 2 3 2 6 7 10 16 12 17 18 21 21 21 24 33 34 33 33 36 36 35 38 40 34 33 30 29 31 32 34 38 38 35 34 38 36 35 34 36 36 35 35 36 29
14 4 1 4 2 3 4 5 4 7 15 19 12 15 18 21 22 22 34 33 33 33 32 33 36 33 37 38 38 35 34 32 31 35 35 39 39 39 41 39 40 37 36 36 37 37 34 36 34
6 5 2 3 2 8 4 3 9 9 12 18 22 18 18 21 21 20 21 27 33 36 37 36 38 36 40 42 43 41 41 39 34 37 34 31 37 41 44 43 45 43 40 38 37 35 34 31 32
8 9 6 6 4 5 3 5 6 7 8 14 19 19 20 21 21 22 24 31 36 40 43 42 42 41 42 44 45 43 40 38 42 39 33 38 43 43 44 42 41 40 35 36 31 34 31 30 26
7 5 9 5 2 2 3 6 9 10 9 4 7 18 20 21 21 23 22 33 36 38 43 47 45 45 44 46 46 46 44 45 38 34 38 42 42 42 36 39 37 36 32 32 35 32 28 26 24
13 6 3 1 5 8 4 4 7 13 11 7 6 10 15 19 21 21 21 30 36 39 43 45 47 47 51 50 48 48 46 43 37 32 34 41 40 28 25 26 29 33 32 37 31 27 26 24 21
2 3 2 5 5 6 1 6 7 8 9 8 8 7 10 15 20 20 19 28 33 36 37 42 44 45 44 44 44 37 35 33 29 32 32 28 35 33 25 23 27 28 26 27 27 25 24 22 23
20 11 10 5 5 3 5 6 4 7 8 6 5 7 8 12 16 17 17 24 28 31 34 39 41 43 45 33 27 24 23 29 36 35 31 30 23 24 22 17 16 19 22 24 23 23 21 22 21
Wind_Direction
306 337 13 57 49 64 261 263 274 291 314 276 94 197 123 237 99 192 158 181 161 156 167 177 160 174 164 154 148 145 141 137 132 132 130 127 125 122 119 116 116 116 115 113 109 106 104 105 111
308 16 68 88 89 45 265 237 263 250 239 91 99 124 41 28 29 77 138 179 171 164 166 174 158 138 199 157 151 148 140 134 130 131 130 129 127 124 121 120 118 117 116 114 111 106 102 101 109
329 100 88 121 151 196 248 327 309 312 47 146 85 40 62 39 347 342 311 202 184 178 191 191 191 199 184 170 158 153 144 138 134 134 133 132 130 129 126 123 121 120 118 118 115 111 102 104 115
30 27 36 93 262 259 243 285 300 326 50 20 115 56 109 193 321 323 335 167 192 215 204 191 182 177 167 159 155 156 145 141 137 137 135 134 132 130 128 126 124 122 120 121 120 110 94 107 120
35 66 51 328 261 272 275 261 235 67 125 15 106 161 278 200 314 88 164 169 171 174 184 171 180 172 157 146 140 174 146 141 139 139 138 135 134 132 129 127 126 126 124 123 120 108 91 108 123
18 94 64 262 263 267 198 243 177 131 144 53 63 136 230 73 346 126 150 159 202 199 191 169 175 152 141 147 139 163 142 140 142 141 140 137 137 134 131 129 127 125 123 123 122 112 97 103 125
149 88 224 250 286 296 220 197 69 89 40 66 100 335 37 20 334 348 151 144 183 195 157 147 148 160 152 147 141 148 145 143 144 144 141 139 139 136 133 129 125 123 119 119 121 116 104 90 114
112 104 286 240 278 283 332 94 33 24 34 289 44 283 352 343 36 107 162 177 161 189 142 146 146 152 146 148 149 146 152 155 148 149 144 143 141 138 135 129 126 123 119 117 116 116 106 91 95
108 81 276 259 331 282 200 108 314 36 52 21 18 18 68 149 127 92 161 147 150 157 159 146 145 144 137 131 135 147 157 153 152 150 146 148 144 141 139 132 128 123 119 115 118 113 109 94 92
119 123 250 245 275 222 56 111 133 59 49 35 66 51 103 27 47 92 189 104 131 139 145 151 143 139 139 147 151 158 152 155 156 154 154 152 149 146 140 135 130 126 124 120 118 116 115 112 104
199 216 276 281 243 180 134 71 162 149 92 183 212 172 120 114 330 27 29 63 158 149 149 146 149 149 148 150 154 157 153 154 156 158 159 157 151 150 143 140 139 136 137 134 130 121 129 123 119
280 260 257 268 218 128 180 152 127 216 220 104 124 150 124 132 122 14 58 146 136 147 145 147 153 154 152 155 157 154 152 155 157 160 160 154 154 152 147 147 146 147 149 143 136 133 131 133 133
194 272 316 266 82 109 122 118 167 110 133 125 149 139 154 145 130 163 136 141 145 131 152 159 162 160 160 157 147 151 151 152 157 159 158 156 155 154 148 154 157 163 165 155 152 150 150 151 142
302 299 282 284 288 162 134 174 225 198 161 152 162 159 159 144 163 177 162 133 136 143 151 159 158 162 161 158 158 154 149 153 158 157 160 156 157 153 168 167 171 175 178 175 170 173 176 171 160
299 310 315 296 282 141 122 13 166 150 178 165 160 157 158 166 192 192 171 163 162 157 157 172 169 165 168 159 161 154 154 160 155 158 154 154 159 166 172 176 183 186 184 193 192 194 188 182 178
342 315 318 285 348 192 159 246 203 186 164 182 147 167 170 182 194 185 172 167 159 160 152 151 160 169 162 163 160 164 165 154 151 159 158 163 168 171 180 186 191 196 199 205 207 198 195 200 201
338 249 259 299 251 187 184 213 206 189 176 179 150 168 181 178 189 176 181 176 159 156 152 148 158 166 169 166 170 168 162 159 165 164 160 173 181 175 191 205 213 206 218 218 209 202 204 199 207
211 227 306 291 293 67 88 210 184 194 191 182 161 168 183 179 196 175 179 185 173 164 155 161 162 168 172 176 176 174 176 173 173 179 179 188 196 196 204 205 209 213 214 211 205 205 203 211 221
278 281 273 286 224 133 221 207 190 177 193 186 169 169 180 184 189 175 178 187 186 177 170 173 173 177 174 177 180 183 185 187 193 192 193 210 209 210 210 216 221 223 225 206 210 208 212 218 218
242 260 279 264 277 152 188 232 205 173 221 202 185 180 174 166 170 177 177 181 189 187 184 185 184 181 182 180 184 188 189 189 196 209 218 223 221 221 223 229 230 228 228 220 217 217 218 226 219
244 244 263 242 245 274 112 310 245 192 202 213 211 190 177 173 176 177 184 185 188 191 192 191 192 193 188 188 192 195 199 205 217 216 219 224 233 236 236 239 232 229 231 231 225 222 223 221 218
250 243 245 272 170 220 148 257 250 214 195 223 204 182 186 180 184 176 186 191 192 197 192 193 192 193 195 194 195 198 200 211 217 221 220 227 240 238 241 240 234 234 233 234 233 230 227 225 221
241 264 249 238 208 179 264 144 260 156 227 223 206 196 193 184 182 185 189 194 194 193 192 193 195 198 196 199 200 201 207 212 215 223 227 233 241 237 242 237 235 237 237 236 238 232 229 231 226
249 194 303 29 79 287 228 173 236 179 217 227 213 209 203 187 189 191 193 187 192 193 193 193 194 200 198 200 203 206 210 212 219 225 225 233 236 239 240 241 239 238 238 237 236 236 235 233 231
193 98 330 326 325 247 247 248 248 228 219 216 204 203 210 193 191 189 188 190 191 190 192 194 198 203 201 202 206 210 215 217 222 224 226 229 234 236 236 238 239 238 237 238 240 238 232 231 231
202 164 167 205 201 259 275 249 251 242 255 224 208 202 202 194 194 195 193 193 194 194 191 194 199 205 205 206 211 215 219 222 227 229 226 232 235 237 236 237 235 234 244 241 245 241 232 231 231
219 165 193 168 193 111 239 294 319 281 284 143 203 191 198 200 196 199 200 197 196 196 199 197 199 205 206 208 211 215 220 224 227 229 232 232 238 240 239 239 235 233 241 245 237 228 224 228 229
202 175 105 17 189 241 241 239 243 280 275 264 209 197 204 199 201 205 202 200 201 201 202 203 205 206 208 208 210 214 218 222 224 231 238 238 236 240 234 236 233 238 248 238 232 220 223 227 227
157 199 164 144 148 202 200 258 211 249 241 209 222 225 189 191 202 205 207 207 205 204 203 205 206 209 210 212 212 214 220 224 227 225 237 246 240 239 246 245 236 232 239 227 219 219 219 217 216
232 213 186 174 220 191 166 253 266 221 211 197 231 196 199 173 189 197 199 202 203 206 210 210 212 211 214 207 207 208 228 227 229 238 225 236 256 242 236 233 220 220 218 215 212 212 212 211 205